Volver al catálogo

STARLINK-32249

ActivoComunicacionesVLEO
NORAD 60444·PAYLOAD·🇺🇸 United States

Lanzado Aug 12, 2024 desde Cape Canaveral Space Force Station

Loading…

Próximos Pases (próximas 24 horas)

TLE

ActualizadoSource: CelesTrak SupGP

Época: Sep 14, 2026, 14:24 UTC

1 60444C 24144V   26257.60048611 -.00041573  00000+0 -12279-2 0  2572
2 60444  53.1581  55.4247 0001114  96.2614 202.6133 15.34421859    15

Sigue STARLINK-32249 en tiempo real con AllMySat

Download on the App Store